Las Vegas, NM

1:32 AM MDT on September 23, 2017 (GMT -0600)
Las Vegas Municipal

Weather History for KLVS - February, 2014

Change the Weather History Date:

Thursday, February 20, 2014

  Actual Average Record
Temperature  
Mean Temperature 32 °F -  
Max Temperature 42 °F 49 °F 69 °F (2016)
Min Temperature 23 °F 23 °F -12 °F (1955)
Degree Days  
Heating Degree Days 32    
Moisture  
Dew Point -9 °F    
Average Humidity 17    
Maximum Humidity 29    
Minimum Humidity 8    
Precipitation  
Precipitation 0.00 in - - ()
Sea Level Pressure  
Sea Level Pressure 29.86 in    
Wind  
Wind Speed 21 mph (NW)    
Max Wind Speed 36 mph    
Max Gust Speed 52 mph    
Visibility 10 miles    
Events      
Averages and records for this station are not official NWS values.
T = Trace of Precipitation, MM = Missing Value Source: NWS Daily Summary

Daily Weather History Graph

Daily Weather History Graph

Search for Another Location

Airport or City:

Trip Planner

Search our weather history database for the weather conditions in past years. The results will help you decide how hot, cold, wet, or windy it might be!

Date:

Astronomy

Feb. 20, 2014 Rise Set
Actual Time 6:41 AM MST 5:47 PM MST
Civil Twilight 6:15 AM MST 6:13 PM MST
Nautical Twilight 5:45 AM MST 6:43 PM MST
Astronomical Twilight 5:16 AM MST 7:12 PM MST
Moon 11:31 PM MST (2/20) 9:38 AM MST (2/20)
Length of Visible Light 11h 57m
Length of Day
11h 05m
Waning Gibbous, 70% of the Moon is Illuminated
Feb 20
Waning Gibbous
Feb 22
Last Quarter
Mar 1
New
Mar 8
First Quarter
Mar 16
Full

Hourly Weather History & Observations

Time (MST) Temp. Windchill Dew Point Humidity Pressure Visibility Wind Dir Wind Speed Gust Speed Precip Events Conditions
12:53 AM 37.9 °F 26.6 °F 8.1 °F 29% 29.51 in 10.0 mi WNW 25.3 mph 38.0 mph N/A   Partly Cloudy
1:53 AM 37.0 °F 26.4 °F 3.9 °F 25% 29.54 in 10.0 mi WNW 20.7 mph 39.1 mph N/A   Clear
2:53 AM 35.1 °F 20.8 °F 3.9 °F 27% 29.59 in 10.0 mi WNW 35.7 mph 51.8 mph N/A   Clear
3:53 AM 32.0 °F 19.5 °F -2.0 °F 23% 29.62 in 10.0 mi WNW 21.9 mph 29.9 mph N/A   Clear
4:53 AM 30.0 °F 17.9 °F -14.1 °F 14% 29.67 in 10.0 mi WNW 18.4 mph 28.8 mph N/A   Clear
5:53 AM 28.0 °F 14.3 °F -17.0 °F 13% 29.73 in 10.0 mi WNW 21.9 mph - N/A   Clear
6:53 AM 28.0 °F 13.3 °F -11.9 °F 17% 29.77 in 10.0 mi NW 25.3 mph 35.7 mph N/A   Clear
7:53 AM 28.9 °F 16.9 °F -7.1 °F 21% 29.82 in 10.0 mi NW 17.3 mph 27.6 mph N/A   Clear
8:53 AM 32.0 °F 18.1 °F -13.0 °F 14% 29.83 in 10.0 mi NW 27.6 mph 36.8 mph N/A   Clear
9:53 AM 34.0 °F 22.4 °F -9.9 °F 15% 29.87 in 10.0 mi NW 20.7 mph 36.8 mph N/A   Clear
10:53 AM 36.0 °F 24.4 °F -9.9 °F 14% 29.90 in 10.0 mi NW 23.0 mph 32.2 mph N/A   Clear
11:53 AM 37.9 °F 27.9 °F -11.9 °F 12% 29.92 in 10.0 mi NW 19.6 mph 28.8 mph N/A   Clear
12:53 PM 41.0 °F 32.2 °F -16.1 °F 8% 29.90 in 10.0 mi NW 18.4 mph 28.8 mph N/A   Clear
1:53 PM 42.1 °F 32.6 °F -16.1 °F 8% 29.88 in 10.0 mi West 23.0 mph 34.5 mph N/A   Clear
2:53 PM 41.0 °F 31.6 °F -13.0 °F 10% 29.91 in 10.0 mi WNW 20.7 mph 25.3 mph N/A   Clear
3:53 PM 39.9 °F 29.7 °F -11.9 °F 11% 29.93 in 10.0 mi WNW 23.0 mph 29.9 mph N/A   Clear
4:53 PM 39.0 °F 29.0 °F -11.9 °F 11% 29.95 in 10.0 mi NNW 20.7 mph 27.6 mph N/A   Clear
5:53 PM 33.1 °F 23.9 °F -11.0 °F 15% 30.01 in 10.0 mi North 12.7 mph - N/A   Clear
6:53 PM 28.9 °F 17.3 °F -11.0 °F 17% 30.03 in 10.0 mi NNW 16.1 mph - N/A   Clear
7:53 PM 26.1 °F 15.6 °F -11.0 °F 19% 30.06 in 10.0 mi East 11.5 mph - N/A   Clear
8:53 PM 26.1 °F 16.2 °F -9.9 °F 20% 30.06 in 10.0 mi East 10.4 mph - N/A   Clear
9:53 PM 26.1 °F 19.4 °F -9.9 °F 20% 30.05 in 10.0 mi SW 5.8 mph - N/A   Clear
10:53 PM 23.0 °F 13.9 °F -9.9 °F 23% 30.04 in 10.0 mi SSE 8.1 mph - N/A   Clear
11:53 PM 26.1 °F 16.8 °F -9.0 °F 21% 30.01 in 10.0 mi NW 9.2 mph - N/A   Clear